Regional Weather Roundup
Issued by NWS

Home | Current Version | Previous Version | Text Only | Print | Product List | Glossary Off
Versions: 1 2 3 4 5 6 7 8 9 10 11 12 13 14 15 16 17 18 19 20 21 22 23 24 25 26 27 28 29 30 31 32 33 34 35 36 37 38 39 40 41 42 43 44 45 46 47 48 49 50

000
ASUS45 KABQ 291210
RWRNM
WEATHER ROUNDUP FOR NEW MEXICO
NATIONAL WEATHER SERVICE ALBUQUERQUE NM
500 AM MST MON DEC 29 2014

NOTE: "FAIR" MEANS FEW OR NO CLOUDS BELOW 12,000 FEET AGL WITH NO
       SIGNIFICANT WEATHER OR OBSTRUCTIONS TO VISION.

      THIS PRODUCT IS RELEASED AS TWO VERSIONS.  ONE VERSION NEAR
      THE TOP OF THE HOUR CONTAINING PRELIMINARY DATA FROM ALBUQUERQUE
      AND OTHER STATIONS.  A FINAL VERSION WITH ADDITIONAL DATA IS
      ISSUED ABOUT 10 MINUTES AFTER THE HOUR.

NMZ501-503-504-510>518-291300-
NORTHWEST PLATEAU/NORTHCENTRAL MOUNTAINS

CITY           SKY/WX    TMP DP  RH WIND       PRES   REMARKS
FARMINGTON     PTCLDY     8   5  87 E6        30.00F WCI  -2
6HR MIN TEMP:   6; 6HR MAX TEMP:  12;

LOS ALAMOS     CLEAR     20   6  54 SE7       29.96F WCI  12
SANTA FE       PTCLDY    10   3  73 SE6       29.98F WCI   0
6HR MIN TEMP:   9; 6HR MAX TEMP:  18;

TAOS           PTCLDY     0  -2  92 N8        29.97F WCI -15
ANGEL FIRE     PTSUNNY   -9 -13  83 CALM      29.94S

$$
NMZ402-403-502-505>509-291300-
WESTCENTRAL MOUNTAINS/SOUTHWEST MOUNTAINS

CITY           SKY/WX    TMP DP  RH WIND       PRES   REMARKS
GALLUP         PTCLDY     2  -3  80 NE7       30.01F WCI -11
6HR MIN TEMP:   2; 6HR MAX TEMP:   8;

GRANTS         CLEAR      8   3  80 NW6       30.02S WCI  -2
SILVER CITY    CLEAR     27  12  54 NW13      30.07S WCI  16

$$
NMZ407-409-411-412-291300-
SOUTHERN DESERTS

CITY           SKY/WX    TMP DP  RH WIND       PRES   REMARKS
LORDSBURG      FAIR      25  19  80 CALM      30.09R
DEMING         CLEAR     25  19  78 SW7       30.07F WCI  17
6HR MIN TEMP:  24; 6HR MAX TEMP:  36;

LAS CRUCES     CLEAR     32  22  67 W9        30.05F WCI  24
HOLLOMAN AFB   PTCLDY    28  22  76 SE7       30.04F WCI  21
ALAMOGORDO     PTCLDY    30  21  69 MISG      30.05F
T OR C         CLEAR     23  13  65 CALM      30.03R
6HR MIN TEMP:  22; 6HR MAX TEMP:  34;


$$
NMZ519>523-291300-
CENTRAL VALLEYS/CENTRAL HIGHLANDS

CITY           SKY/WX    TMP DP  RH WIND       PRES   REMARKS
ALBUQUERQUE    CLEAR     20  12  71 SE5       30.03S WCI  13
6HR MIN TEMP:  20; 6HR MAX TEMP:  25;

MORIARTY ARPT  FAIR       7   2  82 CALM      30.02R
6HR MIN TEMP:   4; 6HR MAX TEMP:  19;

CLINES CORNERS PTCLDY    13   2  61 NW15      29.94S WCI  -3
6HR MIN TEMP:  11; 6HR MAX TEMP:  17;

BELEN          FAIR      13   9  82 NW3       30.04R
6HR MIN TEMP:  12; 6HR MAX TEMP:  20;

SOCORRO        FAIR      21  12  68 CALM      30.05S
6HR MIN TEMP:  18; 6HR MAX TEMP:  27;


$$
NMZ524>526-539-540-291300-
SOUTHCENTRAL MOUNTAINS

CITY           SKY/WX    TMP DP  RH WIND       PRES   REMARKS
RUIDOSO        PTCLDY    27   9  46 CALM      30.01S

$$
NMZ527>531-291300-
NORTHEAST HIGHLANDS/NORTHEAST PLAINS

CITY           SKY/WX    TMP DP  RH WIND       PRES   REMARKS
LAS VEGAS      PTCLDY    19   3  49 E7        29.92F WCI  10
6HR MIN TEMP:  15; 6HR MAX TEMP:  25;

RATON          PTCLDY    13   5  70 NE8       29.93S WCI   2
6HR MIN TEMP:   5; 6HR MAX TEMP:  15;

CLAYTON        CLEAR     22   9  57 NW8       29.93S WCI  12
6HR MIN TEMP:  21; 6HR MAX TEMP:  31;


$$
NMZ532>537-291300-
EASTCENTRAL PLAINS

CITY           SKY/WX    TMP DP  RH WIND       PRES   REMARKS
TUCUMCARI      CLEAR     24  12  60 S5        29.96S WCI  18
6HR MIN TEMP:  20; 6HR MAX TEMP:  35;

CANNON AFB     PTCLDY    25  10  52 NW6       29.99S WCI  18
6HR MIN TEMP:  24; 6HR MAX TEMP:  38;

CLOVIS AIRPORT PTCLDY    25   9  50 NW9       29.98S WCI  15

$$
NMZ028-029-538-291300-
SOUTHEAST PLAINS

CITY           SKY/WX    TMP DP  RH WIND       PRES   REMARKS
ROSWELL        CLEAR     26  16  65 W6        30.01F WCI  19
6HR MIN TEMP:  21; 6HR MAX TEMP:  36;

ARTESIA        CLEAR     27  18  69 SW6       30.02S WCI  20
CARLSBAD       PTCLDY    30  26  85 SW9       30.02R WCI  22
6HR MIN TEMP:  29; 6HR MAX TEMP:  37;

HOBBS          CLEAR     28  27  93 CALM      30.03R


$$



USA.gov is the U.S. government's official web portal to all federal, state and local government web resources and services.